Погода в Старо-Волжском

Россия / Астраханская область     45°51′32″N   47°41′30″E
темп.,
°C
ветер,
м/с
пор.,
м/с
влажн.,
%
обл.,
%
осадки,
мм/ч
давл.,
гПа
погр.,
м
11 мая, вт
вт1101:00+9юз37600 0.0 1019148
04:00+9юз34641 0.0 102052
07:00+10зсз24573 0.0 1020176
10:00+16вюв55425 0.0 10211171
13:00+18вюв783657 0.0 10201688
16:00+18вюв894292 0.0 10201792
19:00+17в78505 0.0 10191397
22:00+13всв47575 0.0 1018180
12 мая, ср
ср1201:00+12всв36638 0.0 1017122
04:00+13св346394 0.0 1017100
07:00+14св35693 0.0 1017175
10:00+20вюв455892 0.1 10171382
13:00+20юв446326 0.1 1017903
16:00+21ююв55571 0.2 1017831
19:00+19ююв45570 0.0 1017507
22:00+16ююв22640 0.0 101615
13 мая, чт
чт1301:00+15в22690 0.0 101627
04:00+14в22821 0.0 101514
07:00+17всв22770 0.0 1016132
10:00+23юв36554 0.0 1016781
13:00+24юв57520 0.0 1016678
16:00+23юв68550 0.0 1016530
19:00+21юв46570 0.0 1016287
22:00+19вюв477140 0.0 1016157
14 мая, пт
пт1401:00+20юв35634 0.0 101662
04:00+19в47690 0.0 1016108
07:00+23вюв715464 0.0 1016516
10:00+25юв9143823 0.0 1017552
13:00+26юв9133335 0.0 1018569
16:00+26юв914313 0.0 1017559
19:00+24вюв612392 0.0 1017374
22:00+21в410515 0.0 1017157
15 мая, сб
сб1501:00+19в49640 0.0 1016119
04:00+19в511580 0.0 1015154
07:00+23юв815500 0.0 1016446
10:00+26юв914410 0.0 1017553
13:00+28юв811340 0.0 1017702
16:00+27юв811325 0.0 1016679
19:00
22:00+21вюв375890 0.0 1017113